Weather in Krasnoborsk

Russia / Arkhangel'skaya Oblast'     61°33′34″N   45°56′38″E
temp.,
°C
wind,
m/s
gust,
m/s
humid.,
%
clouds,
%
prec.,
mm/h
press.,
hPa
HPBL,
m
22 january, sat
sat2200:00−10se3895100 0.0 1013250
03:00−13se2696100 0.0 1014126
06:00−16se2598100 0.0 101689
09:00−17se2697100 0.0 1018115
12:00−12se2693100 0.0 1019213
15:00−13ese129861 0.0 102131
18:00−17sse2110085 0.0 102318
21:00−18sse1110085 0.0 102510
23 january, sun
sun2300:00−18se11100100 0.0 10269
03:00−19se119987 0.0 10269
06:00−16e009996 0.0 102615
09:00−12ne1196100 0.3 102669
12:00−10ese129396 0.5 1026185
15:00−10s0097100 0.6 102714
18:00−14wsw119974 0.1 102910
21:00−14sw239896 0.1 103050
24 january, mon
mon2400:00−11sw379424 0.1 1031213
03:00−14sw311936 0.1 1032215
06:00−13sw4129143 0.0 1031249
09:00−12sw5158867 0.0 1031323
12:00−9sw5168252 0.0 1030475
15:00−8sw61683100 0.0 1028499
18:00−7sw51684100 0.0 1028524
21:00−8sw5168336 0.0 1027470
25 january, tue
tue2500:00−8sw617815 0.0 1026444
03:00−8sw518775 0.0 1024539
06:00−8sw619765 0.0 1022562
09:00−9ssw619765 0.0 1021572
12:00−7ssw619760 0.0 1019665
15:00−7ssw618760 0.0 1017675
18:00−8ssw617815 0.0 1017655
21:00−8ssw51486100 0.0 1016665
26 january, wed
wed2600:00−9ssw4118999 0.0 1017486
03:00−10ssw3991100 0.1 1017399
06:00−10sw3794100 0.2 1018299
09:00−10sw2694100 0.5 1019209
12:00−8wsw249192 0.1 1020240
15:00−11sw119885 0.1 102110
18:00−15sw219990 0.1 102213
21:00−16wsw1199100 0.1 102310